Time,TemperatureF,DewpointF,PressureIn,WindDirection,WindDirectionDegrees,WindSpeedMPH,WindSpeedGustMPH,Humidity,HourlyPrecipIn,Conditions,Clouds,dailyrainin,SoftwareType,DateUTC
2013-02-10 00:03:00,13.0,13.0,30.14,NW,315,12.0,20.0,100,0.00,,,0.00,Weather View 32 v70,2013-02-10 05:03:00,
2013-02-10 00:30:00,13.0,13.0,30.15,WNW,292,11.0,22.0,100,0.00,,,0.00,Weather View 32 v70,2013-02-10 05:30:00,
2013-02-10 00:32:00,13.0,13.0,30.15,WNW,292,11.0,22.0,100,0.00,,,0.00,Weather View 32 v70,2013-02-10 05:32:00,
2013-02-10 01:00:00,12.0,12.0,30.17,NW,315,14.0,23.0,100,0.00,,,0.00,Weather View 32 v70,2013-02-10 06:00:00,
2013-02-10 01:30:00,12.0,12.0,30.18,WNW,292,15.0,23.0,100,0.00,,,0.00,Weather View 32 v70,2013-02-10 06:30:00,
2013-02-10 01:32:00,12.0,12.0,30.18,WNW,292,15.0,23.0,100,0.00,,,0.00,Weather View 32 v70,2013-02-10 06:32:00,
2013-02-10 02:01:00,12.0,12.0,30.19,WNW,292,10.0,22.0,100,0.00,,,0.00,Weather View 32 v70,2013-02-10 07:01:00,
2013-02-10 02:30:00,12.0,12.0,30.19,NW,315,8.0,23.0,100,0.00,,,0.00,Weather View 32 v70,2013-02-10 07:30:00,
2013-02-10 02:31:00,12.0,12.0,30.19,NW,315,8.0,23.0,100,0.00,,,0.00,Weather View 32 v70,2013-02-10 07:31:00,
2013-02-10 03:00:00,12.0,12.0,30.21,WNW,292,10.0,24.0,100,0.00,,,0.00,Weather View 32 v70,2013-02-10 08:00:00,
2013-02-10 03:30:00,11.0,11.0,30.22,WNW,292,9.0,24.0,100,0.00,,,0.00,Weather View 32 v70,2013-02-10 08:30:00,
2013-02-10 03:31:00,11.0,11.0,30.22,WNW,292,9.0,24.0,100,0.00,,,0.00,Weather View 32 v70,2013-02-10 08:31:00,
2013-02-10 04:00:00,11.0,11.0,30.22,West,270,12.0,22.0,100,0.00,,,0.00,Weather View 32 v70,2013-02-10 09:00:00,
2013-02-10 04:33:00,11.0,11.0,30.24,NW,315,13.0,22.0,100,0.00,,,0.00,Weather View 32 v70,2013-02-10 09:33:00,
2013-02-10 05:01:00,11.0,11.0,30.25,WNW,292,14.0,22.0,100,0.00,,,0.00,Weather View 32 v70,2013-02-10 10:01:00,
2013-02-10 05:33:00,10.0,9.8,30.26,NW,315,7.0,23.0,99,0.00,,,0.00,Weather View 32 v70,2013-02-10 10:33:00,
2013-02-10 06:00:00,10.0,9.8,30.27,WNW,292,7.0,23.0,99,0.00,,,0.00,Weather View 32 v70,2013-02-10 11:00:00,
2013-02-10 06:06:00,10.0,9.8,30.27,WNW,292,7.0,23.0,99,0.00,,,0.00,Weather View 32 v70,2013-02-10 11:06:00,
2013-02-10 06:31:00,10.0,8.9,30.29,WNW,292,8.0,25.0,95,0.00,,,0.00,Weather View 32 v70,2013-02-10 11:31:00,
2013-02-10 07:00:00,10.0,8.4,30.30,WNW,292,8.0,25.0,93,0.00,,,0.00,Weather View 32 v70,2013-02-10 12:00:00,
2013-02-10 07:01:00,10.0,8.4,30.30,WNW,292,8.0,25.0,93,0.00,,,0.00,Weather View 32 v70,2013-02-10 12:01:00,
2013-02-10 07:31:00,12.0,9.1,30.30,WNW,292,7.0,23.0,88,0.00,,,0.00,Weather View 32 v70,2013-02-10 12:31:00,
2013-02-10 08:00:00,13.0,8.8,30.30,WNW,292,14.0,22.0,83,0.00,,,0.00,Weather View 32 v70,2013-02-10 13:00:00,
2013-02-10 08:02:00,13.0,8.8,30.30,WNW,292,14.0,22.0,83,0.00,,,0.00,Weather View 32 v70,2013-02-10 13:02:00,
2013-02-10 08:31:00,15.0,9.1,30.31,WNW,292,20.0,22.0,77,0.00,,,0.00,Weather View 32 v70,2013-02-10 13:31:00,
2013-02-10 09:00:00,17.0,10.5,30.32,WNW,292,13.0,28.0,75,0.00,,,0.00,Weather View 32 v70,2013-02-10 14:00:00,
2013-02-10 09:01:00,17.0,10.5,30.32,WNW,292,13.0,28.0,75,0.00,,,0.00,Weather View 32 v70,2013-02-10 14:01:00,
2013-02-10 09:30:00,19.0,10.5,30.33,NNW,337,12.0,28.0,69,0.00,,,0.00,Weather View 32 v70,2013-02-10 14:30:00,
2013-02-10 10:00:00,21.0,12.1,30.32,WNW,292,12.0,26.0,68,0.00,,,0.00,Weather View 32 v70,2013-02-10 15:00:00,
2013-02-10 10:02:00,21.0,12.1,30.32,WNW,292,12.0,26.0,68,0.00,,,0.00,Weather View 32 v70,2013-02-10 15:02:00,
2013-02-10 10:31:00,23.0,14.0,30.33,WNW,292,9.0,26.0,68,0.00,,,0.00,Weather View 32 v70,2013-02-10 15:31:00,
2013-02-10 11:00:00,24.0,15.0,30.33,WNW,292,14.0,26.0,68,0.00,,,0.00,Weather View 32 v70,2013-02-10 16:00:00,
2013-02-10 11:02:00,24.0,15.0,30.33,WNW,292,14.0,26.0,68,0.00,,,0.00,Weather View 32 v70,2013-02-10 16:02:00,
2013-02-10 11:31:00,25.0,12.3,30.32,WNW,292,10.0,23.0,58,0.00,,,0.00,Weather View 32 v70,2013-02-10 16:31:00,
2013-02-10 12:02:00,26.0,11.6,30.31,WSW,247,15.0,25.0,54,0.00,,,0.00,Weather View 32 v70,2013-02-10 17:02:00,
2013-02-10 12:32:00,28.0,13.9,30.31,WNW,292,7.0,25.0,55,0.00,,,0.00,Weather View 32 v70,2013-02-10 17:32:00,
2013-02-10 13:02:00,30.0,14.5,30.30,West,270,7.0,25.0,52,0.00,,,0.00,Weather View 32 v70,2013-02-10 18:02:00,
2013-02-10 13:31:00,30.0,14.5,30.29,NNW,337,11.0,25.0,52,0.00,,,0.00,Weather View 32 v70,2013-02-10 18:31:00,
2013-02-10 14:01:00,30.0,13.6,30.29,WNW,292,9.0,21.0,50,0.00,,,0.00,Weather View 32 v70,2013-02-10 19:01:00,
2013-02-10 14:32:00,31.0,14.5,30.28,WNW,292,16.0,25.0,50,0.00,,,0.00,Weather View 32 v70,2013-02-10 19:32:00,
2013-02-10 15:01:00,31.0,12.6,30.28,WSW,247,8.0,25.0,46,0.00,,,0.00,Weather View 32 v70,2013-02-10 20:01:00,
2013-02-10 15:33:00,31.0,14.5,30.28,WNW,292,7.0,20.0,50,0.00,,,0.00,Weather View 32 v70,2013-02-10 20:33:00,
2013-02-10 16:01:00,31.0,19.9,30.29,WNW,292,4.0,20.0,63,0.00,,,0.00,Weather View 32 v70,2013-02-10 21:01:00,
2013-02-10 16:31:00,30.0,20.0,30.30,WNW,292,7.0,15.0,66,0.00,,,0.00,Weather View 32 v70,2013-02-10 21:31:00,
2013-02-10 16:37:00,30.0,20.0,30.30,WNW,292,7.0,15.0,66,0.00,,,0.00,Weather View 32 v70,2013-02-10 21:37:00,
2013-02-10 17:01:00,28.0,17.8,30.33,WNW,292,6.0,15.0,65,0.00,,,0.00,Weather View 32 v70,2013-02-10 22:01:00,
2013-02-10 17:30:00,25.0,19.4,30.35,WNW,292,4.0,15.0,79,0.00,,,0.00,Weather View 32 v70,2013-02-10 22:30:00,
2013-02-10 17:31:00,25.0,19.4,30.35,WNW,292,4.0,15.0,79,0.00,,,0.00,Weather View 32 v70,2013-02-10 22:31:00,
2013-02-10 18:01:00,25.0,13.4,30.36,WNW,292,7.0,9.0,61,0.00,,,0.00,Weather View 32 v70,2013-02-10 23:01:00,
2013-02-10 18:30:00,24.0,13.6,30.35,WNW,292,6.0,9.0,64,0.00,,,0.00,Weather View 32 v70,2013-02-10 23:30:00,
2013-02-10 18:31:00,24.0,13.6,30.35,WNW,292,6.0,9.0,64,0.00,,,0.00,Weather View 32 v70,2013-02-10 23:31:00,
2013-02-10 19:01:00,25.0,14.2,30.35,WNW,292,4.0,10.0,63,0.00,,,0.00,Weather View 32 v70,2013-02-11 00:01:00,
2013-02-10 19:30:00,24.0,11.7,30.38,WNW,292,7.0,10.0,59,0.00,,,0.00,Weather View 32 v70,2013-02-11 00:30:00,
2013-02-10 19:31:00,24.0,11.7,30.38,WNW,292,7.0,10.0,59,0.00,,,0.00,Weather View 32 v70,2013-02-11 00:31:00,
2013-02-10 20:00:00,23.0,10.8,30.38,WSW,247,7.0,10.0,59,0.00,,,0.00,Weather View 32 v70,2013-02-11 01:00:00,
2013-02-10 20:30:00,22.0,10.2,30.39,WNW,292,7.0,10.0,60,0.00,,,0.00,Weather View 32 v70,2013-02-11 01:30:00,
2013-02-10 20:31:00,22.0,10.2,30.39,WNW,292,7.0,10.0,60,0.00,,,0.00,Weather View 32 v70,2013-02-11 01:31:00,
2013-02-10 21:00:00,21.0,11.1,30.37,WNW,292,5.0,10.0,65,0.00,,,0.00,Weather View 32 v70,2013-02-11 02:00:00,
2013-02-10 21:30:00,20.0,10.5,30.37,NW,315,8.0,10.0,66,0.00,,,0.00,Weather View 32 v70,2013-02-11 02:30:00,
2013-02-10 21:31:00,20.0,10.5,30.37,NW,315,8.0,10.0,66,0.00,,,0.00,Weather View 32 v70,2013-02-11 02:31:00,
2013-02-10 22:00:00,19.0,8.8,30.37,WNW,292,7.0,10.0,64,0.00,,,0.00,Weather View 32 v70,2013-02-11 03:00:00,
2013-02-10 22:31:00,17.0,11.3,30.38,North,360,1.0,9.0,78,0.00,,,0.00,Weather View 32 v70,2013-02-11 03:31:00,
2013-02-10 23:02:00,16.0,8.9,30.40,WNW,292,6.0,9.0,73,0.00,,,0.00,Weather View 32 v70,2013-02-11 04:02:00,
2013-02-10 23:31:00,13.0,10.4,30.42,NNW,337,4.0,8.0,89,0.00,,,0.00,Weather View 32 v70,2013-02-11 04:31:00,